• In Deutschland
  • Länderverzeichnis
  • Für 7 Tage
  • Wassertemperatur
  • Satellitenkarten
  • Wetterkarte
  • Widgets
  • user-avatar
    Anmelden

    Stündliche Wetter Rio Branco

    Heute, 18 September, Dienstag

    Zeit Temperatur Niederschläge Wind Luftdruck Luftfeuchtigkeit
    00:00 +27°C° 0 mm 1 m/S 745 mmHg 72%
    01:00 +27°C° 0 mm 1 m/S 744 mmHg 73%
    02:00 +27°C° 0 mm 1 m/S 744 mmHg 74%
    03:00 +26°C° 0 mm 1 m/S 744 mmHg 74%
    04:00 +26°C° 0 mm 1 m/S 744 mmHg 74%
    05:00 +27°C° 0 mm 1 m/S 745 mmHg 70%
    06:00 +28°C° 0 mm 1 m/S 746 mmHg 67%
    07:00 +30°C° 0 mm 1 m/S 746 mmHg 61%
    08:00 +33°C° 0 mm 1 m/S 746 mmHg 52%
    09:00 +36°C° 0 mm 2 m/S 746 mmHg 43%
    10:00 +39°C° 0 mm 2 m/S 746 mmHg 34%
    11:00 +39°C° 0 mm 2 m/S 745 mmHg 34%
    12:00 +39°C° 0 mm 2 m/S 744 mmHg 34%
    13:00 +39°C° 0 mm 2 m/S 744 mmHg 34%
    14:00 +39°C° 0 mm 2 m/S 743 mmHg 34%
    15:00 +38°C° 0 mm 2 m/S 742 mmHg 34%
    16:00 +38°C° 0 mm 2 m/S 742 mmHg 34%
    17:00 +35°C° 0 mm 1 m/S 742 mmHg 41%
    18:00 +33°C° 0 mm 1 m/S 742 mmHg 47%
    19:00 +31°C° 0 mm 1 m/S 742 mmHg 53%
    20:00 +30°C° 0 mm 1 m/S 743 mmHg 57%
    21:00 +30°C° 0 mm 1 m/S 743 mmHg 60%
    22:00 +29°C° 0 mm 1 m/S 744 mmHg 64%
    23:00 +29°C° 0 mm 1 m/S 743 mmHg 66%

    Morgen, 19 September, Mittwoch

    Zeit Temperatur Niederschläge Wind Luftdruck Luftfeuchtigkeit
    00:00 +28°C° 0 mm 1 m/S 743 mmHg 68%
    01:00 +28°C° 0 mm 1 m/S 743 mmHg 70%
    02:00 +28°C° 0 mm 1 m/S 743 mmHg 70%
    03:00 +27°C° 0 mm 1 m/S 743 mmHg 70%
    04:00 +27°C° 0 mm 1 m/S 743 mmHg 70%
    05:00 +28°C° 0 mm 1 m/S 744 mmHg 65%
    06:00 +29°C° 0 mm 1 m/S 744 mmHg 61%
    07:00 +30°C° 0 mm 2 m/S 745 mmHg 56%
    08:00 +34°C° 0 mm 2 m/S 745 mmHg 49%
    09:00 +36°C° 0 mm 2 m/S 745 mmHg 41%
    10:00 +39°C° 0 mm 2 m/S 745 mmHg 34%
    11:00 +40°C° 0 mm 2 m/S 744 mmHg 31%
    12:00 +41°C° 0 mm 2 m/S 743 mmHg 29%
    13:00 +42°C° 0 mm 2 m/S 742 mmHg 27%
    14:00 +41°C° 0 mm 2 m/S 742 mmHg 29%
    15:00 +40°C° 0 mm 2 m/S 741 mmHg 32%
    16:00 +39°C° 0 mm 2 m/S 741 mmHg 34%
    17:00 +36°C° 0 mm 1 m/S 741 mmHg 39%
    18:00 +34°C° 0 mm 1 m/S 742 mmHg 44%
    19:00 +32°C° 0 mm 1 m/S 742 mmHg 49%
    20:00 +32°C° 0 mm 1 m/S 743 mmHg 52%
    21:00 +31°C° 0 mm 1 m/S 743 mmHg 54%
    22:00 +30°C° 0 mm 1 m/S 744 mmHg 56%
    23:00 +30°C° 0 mm 1 m/S 744 mmHg 58%

    übermorgen, 20 September, Donnerstag

    Zeit Temperatur Niederschläge Wind Luftdruck Luftfeuchtigkeit
    00:00 +29°C° 0 mm 1 m/S 743 mmHg 60%
    01:00 +29°C° 0 mm 1 m/S 743 mmHg 63%
    02:00 +29°C° 0 mm 1 m/S 743 mmHg 64%
    03:00 +28°C° 0 mm 1 m/S 743 mmHg 66%
    04:00 +28°C° 0 mm 1 m/S 743 mmHg 67%
    05:00 +29°C° 0 mm 1 m/S 744 mmHg 64%
    06:00 +30°C° 0 mm 1 m/S 744 mmHg 61%
    07:00 +31°C° 0 mm 1 m/S 745 mmHg 58%
    08:00 +34°C° 0 mm 1 m/S 745 mmHg 49%
    09:00 +38°C° 0 mm 2 m/S 745 mmHg 41%
    10:00 +40°C° 0 mm 2 m/S 746 mmHg 32%
    11:00 +41°C° 0 mm 2 m/S 745 mmHg 31%
    12:00 +41°C° 0 mm 2 m/S 743 mmHg 29%
    13:00 +41°C° 0 mm 2 m/S 742 mmHg 28%
    14:00 +40°C° 0 mm 1 m/S 742 mmHg 30%
    15:00 +40°C° 0 mm 1 m/S 742 mmHg 32%
    16:00 +39°C° 0 mm 1 m/S 741 mmHg 34%
    17:00 +36°C° 0 mm 1 m/S 742 mmHg 37%
    18:00 +32°C° 0 mm 0 m/S 742 mmHg 41%
    19:00 +31°C° 0 mm 0 m/S 743 mmHg 45%
    20:00 +30°C° 0 mm 0 m/S 743 mmHg 47%
    21:00 +29°C° 0 mm 0 m/S 744 mmHg 48%
    22:00 +29°C° 0 mm 0 m/S 744 mmHg 50%
    23:00 +28°C° 0 mm 0 m/S 744 mmHg 51%

    21 September, Freitag

    Zeit Temperatur Niederschläge Wind Luftdruck Luftfeuchtigkeit
    00:00 +28°C° 0 mm 0 m/S 744 mmHg 53%
    01:00 +27°C° 0 mm 0 m/S 743 mmHg 54%
    02:00 +27°C° 0 mm 0 m/S 743 mmHg 56%
    03:00 +26°C° 0 mm 0 m/S 743 mmHg 57%
    04:00 +26°C° 0 mm 0 m/S 743 mmHg 59%
    05:00 +29°C° 0 mm 1 m/S 744 mmHg 57%
    06:00 +30°C° 0 mm 1 m/S 745 mmHg 55%
    07:00 +31°C° 0 mm 1 m/S 745 mmHg 53%
    08:00 +34°C° 0 mm 1 m/S 745 mmHg 46%
    09:00 +37°C° 0 mm 1 m/S 746 mmHg 38%
    10:00 +42°C° 0 mm 1 m/S 746 mmHg 30%
    11:00 +41°C° 0 mm 1 m/S 745 mmHg 31%
    12:00 +41°C° 0 mm 1 m/S 744 mmHg 31%
    13:00 +37°C° 0 mm 0 m/S 743 mmHg 32%
    14:00 +39°C° 0 mm 1 m/S 742 mmHg 34%
    15:00 +37°C° 0 mm 1 m/S 742 mmHg 37%
    16:00 +36°C° 0 mm 1 m/S 741 mmHg 40%
    17:00 +35°C° 0 mm 1 m/S 742 mmHg 45%
    18:00 +33°C° 0 mm 1 m/S 742 mmHg 50%
    19:00 +31°C° 0 mm 1 m/S 743 mmHg 54%
    20:00 +30°C° 0.2 mm 1 m/S 743 mmHg 60%
    21:00 +30°C° 0.2 mm 2 m/S 744 mmHg 66%
    22:00 +29°C° 0.2 mm 3 m/S 744 mmHg 72%
    23:00 +28°C° 0.1 mm 2 m/S 744 mmHg 75%

    22 September, Samstag

    Zeit Temperatur Niederschläge Wind Luftdruck Luftfeuchtigkeit
    00:00 +27°C° 0.1 mm 2 m/S 744 mmHg 78%
    01:00 +26°C° 0.1 mm 1 m/S 743 mmHg 81%
    02:00 +26°C° 1.3 mm 1 m/S 744 mmHg 85%
    03:00 +25°C° 1.3 mm 1 m/S 744 mmHg 89%
    04:00 +25°C° 1.3 mm 1 m/S 744 mmHg 92%
    05:00 +25°C° 0 mm 1 m/S 744 mmHg 90%
    06:00 +24°C° 0 mm 0 m/S 745 mmHg 87%
    07:00 +25°C° 0 mm 0 m/S 745 mmHg 84%
    08:00 +28°C° 0 mm 0 m/S 745 mmHg 70%
    09:00 +34°C° 0 mm 1 m/S 746 mmHg 55%
    10:00 +37°C° 0 mm 1 m/S 746 mmHg 40%
    11:00 +39°C° 0 mm 1 m/S 745 mmHg 36%
    12:00 +40°C° 0 mm 1 m/S 744 mmHg 33%
    13:00 +41°C° 0 mm 1 m/S 743 mmHg 29%
    14:00 +40°C° 0 mm 1 m/S 742 mmHg 32%
    15:00 +39°C° 0 mm 1 m/S 742 mmHg 34%
    16:00 +37°C° 0 mm 1 m/S 741 mmHg 37%
    17:00 +35°C° 0 mm 1 m/S 742 mmHg 42%
    18:00 +33°C° 0 mm 1 m/S 742 mmHg 48%
    19:00 +31°C° 0 mm 1 m/S 742 mmHg 54%
    20:00 +31°C° 0 mm 1 m/S 743 mmHg 58%
    21:00 +30°C° 0 mm 1 m/S 743 mmHg 62%
    22:00 +29°C° 0 mm 1 m/S 743 mmHg 66%
    23:00 +28°C° 0.2 mm 1 m/S 743 mmHg 71%

    23 September, Sonntag

    Zeit Temperatur Niederschläge Wind Luftdruck Luftfeuchtigkeit
    00:00 +28°C° 0.2 mm 1 m/S 743 mmHg 77%
    01:00 +25°C° 0.2 mm 0 m/S 743 mmHg 82%
    02:00 +25°C° 0.3 mm 0 m/S 743 mmHg 85%
    03:00 +26°C° 0.3 mm 1 m/S 743 mmHg 87%
    04:00 +26°C° 0.3 mm 1 m/S 743 mmHg 90%
    05:00 +27°C° 0 mm 1 m/S 744 mmHg 87%
    06:00 +28°C° 0 mm 1 m/S 744 mmHg 84%
    07:00 +29°C° 0 mm 1 m/S 745 mmHg 81%
    08:00 +31°C° 0 mm 1 m/S 745 mmHg 69%
    09:00 +34°C° 0 mm 1 m/S 745 mmHg 56%
    10:00 +37°C° 0 mm 1 m/S 745 mmHg 44%
    11:00 +39°C° 0 mm 1 m/S 745 mmHg 40%
    12:00 +40°C° 0 mm 1 m/S 744 mmHg 36%
    13:00 +41°C° 0 mm 1 m/S 743 mmHg 31%
    14:00 +40°C° 0 mm 1 m/S 742 mmHg 33%
    15:00 +40°C° 0 mm 1 m/S 742 mmHg 35%
    16:00 +39°C° 0 mm 1 m/S 742 mmHg 36%
    17:00 +36°C° 0 mm 1 m/S 742 mmHg 41%
    18:00 +32°C° 0 mm 0 m/S 742 mmHg 46%
    19:00 +30°C° 0 mm 0 m/S 743 mmHg 52%
    20:00 +29°C° 0 mm 0 m/S 743 mmHg 53%
    21:00 +29°C° 0 mm 0 m/S 743 mmHg 55%
    22:00 +28°C° 0 mm 0 m/S 744 mmHg 57%
    23:00 +28°C° 0 mm 0 m/S 743 mmHg 59%
    Mehr zeigen